Location: Krakow
(50.0830°N, 19.9170°E)
Time: 13:11:21
(UTC+02:00)

Tiros 1 - Pass Details

Date: 01 February 2023
Orbit: 627 x 662 km, 48.4° (Epoch: 01 April)

Event Time Altitude Azimuth Distance (km) Brightness Sun altitude
Exits shadow 05:55:50 18° 266° (W) 1,576 8.5 -12.8°
Maximum altitude 05:58:53 40° 205° (SSW) 955 7.9 -12.3°
Drops below altitude 10° 06:03:18 10° 136° (SE) 2,050 10.6 -11.6°
Sets 06:05:44 0° 129° (SE) 2,964 11.8 -11.2°
